アトラス彗星

C/2017 K4 ( ATLAS )

English version
Home page
Updated on October 22, 2018

---------------------------------------------------------------------

・ プロフィール

発見日 2017年5月26日
発見光度 17.0等
発見者 Asteroid Terrestrial-impact Last Alert System (ATLAS) Team

・ 写真集

・ 軌道要素

Epoch 2018 Jan. 2.0 TT = JDT 2458120.5
T 2018 Jan. 8.03361 TT                                  MPCW
q   2.6480763            (2000.0)            P               Q
n   0.00661440     Peri.   15.10906     +0.68514209     +0.68369771
a  28.1066612      Node   298.89768     -0.69452669     +0.50918620
e   0.9057847      Incl.   16.67901     -0.21957459     +0.52276845
P 149
From 343 observations 2017 May 26-2018 Sept. 18, mean residual 0".4.

・ 星図

・ 光度変化

        m1 = 9.2 + 5 logΔ + 10.0 log r(t + 50)

---------------------------------------------------------------------

軌道要素はM.P.E.C. 2018-S50に掲載されたものです。
星図はステラナビゲータ Ver.10 (アストロアーツ) で作成したものです。
光度グラフはComet for Windowsで作成したものです。

---------------------------------------------------------------------

Copyright(C) Seiichi Yoshida (comet@aerith.net). All rights reserved.